Time,TemperatureF,DewpointF,PressureIn,WindDirection,WindDirectionDegrees,WindSpeedMPH,WindSpeedGustMPH,Humidity,HourlyPrecipIn,Conditions,Clouds,dailyrainin,SoftwareType,DateUTC
2013-07-06 00:02:00,53.0,36.0,-100.00,SSE,160,2.0,6.0,52,0.00,,,0.03,,2013-07-06 08:02:00,
2013-07-06 00:11:00,53.0,36.0,-100.00,SSE,160,2.0,6.0,52,0.00,,,0.03,,2013-07-06 08:11:00,
2013-07-06 00:33:00,53.0,36.0,-100.00,SSE,155,3.0,7.0,52,0.00,,,0.02,,2013-07-06 08:33:00,
2013-07-06 00:43:00,53.0,36.0,-100.00,SSE,155,3.0,7.0,52,0.00,,,0.02,,2013-07-06 08:43:00,
2013-07-06 00:54:00,52.0,36.0,-100.00,SE,140,2.0,7.0,55,0.00,,,0.01,,2013-07-06 08:54:00,
2013-07-06 01:02:00,52.0,36.0,-100.00,SE,140,2.0,7.0,55,0.00,,,0.01,,2013-07-06 09:02:00,
2013-07-06 01:11:00,52.0,36.0,-100.00,SE,140,2.0,7.0,55,0.00,,,0.01,,2013-07-06 09:11:00,
2013-07-06 01:33:00,52.0,37.0,-100.00,ENE,70,2.0,9.0,56,0.00,,,0.00,,2013-07-06 09:33:00,
2013-07-06 01:43:00,52.0,37.0,-100.00,ENE,70,2.0,9.0,56,0.00,,,0.00,,2013-07-06 09:43:00,
2013-07-06 01:52:00,52.0,37.0,-100.00,SSE,155,1.0,8.0,57,0.00,,,0.00,,2013-07-06 09:52:00,
2013-07-06 02:02:00,52.0,37.0,-100.00,SSE,155,1.0,8.0,57,0.00,,,0.00,,2013-07-06 10:02:00,
2013-07-06 02:11:00,52.0,37.0,-100.00,SSE,155,1.0,8.0,57,0.00,,,0.00,,2013-07-06 10:11:00,
2013-07-06 02:33:00,51.0,37.0,-100.00,SE,130,2.0,7.0,58,0.00,,,0.00,,2013-07-06 10:33:00,
2013-07-06 02:42:00,51.0,37.0,-100.00,SE,130,2.0,7.0,58,0.00,,,0.00,,2013-07-06 10:42:00,
2013-07-06 02:53:00,51.0,37.0,-100.00,SSE,160,2.0,9.0,58,0.00,,,0.00,,2013-07-06 10:53:00,
2013-07-06 03:01:00,51.0,37.0,-100.00,SSE,160,2.0,9.0,58,0.00,,,0.00,,2013-07-06 11:01:00,
2013-07-06 03:11:00,51.0,37.0,-100.00,SSE,160,2.0,9.0,58,0.00,,,0.00,,2013-07-06 11:11:00,
2013-07-06 03:33:00,51.0,38.0,-100.00,ESE,105,2.0,9.0,60,0.00,,,0.00,,2013-07-06 11:33:00,
2013-07-06 03:42:00,51.0,38.0,-100.00,ESE,105,2.0,9.0,60,0.00,,,0.00,,2013-07-06 11:42:00,
2013-07-06 03:52:00,51.0,38.0,-100.00,SE,145,2.0,7.0,62,0.00,,,0.00,,2013-07-06 11:52:00,
2013-07-06 04:01:00,51.0,38.0,-100.00,SE,145,2.0,7.0,62,0.00,,,0.00,,2013-07-06 12:01:00,
2013-07-06 04:11:00,51.0,38.0,-100.00,SE,145,2.0,7.0,62,0.00,,,0.00,,2013-07-06 12:11:00,
2013-07-06 04:33:00,50.0,39.0,-100.00,ENE,70,2.0,9.0,65,0.00,,,0.00,,2013-07-06 12:33:00,
2013-07-06 04:43:00,50.0,39.0,-100.00,ENE,70,2.0,9.0,65,0.00,,,0.00,,2013-07-06 12:43:00,
2013-07-06 04:52:00,49.0,39.0,-100.00,SE,145,2.0,7.0,67,0.00,,,0.00,,2013-07-06 12:52:00,
2013-07-06 05:01:00,49.0,39.0,-100.00,SE,145,2.0,7.0,67,0.00,,,0.00,,2013-07-06 13:01:00,
2013-07-06 05:11:00,49.0,39.0,-100.00,SE,145,2.0,7.0,67,0.00,,,0.00,,2013-07-06 13:11:00,
2013-07-06 05:20:00,49.0,39.0,-100.00,SE,125,2.0,7.0,69,0.00,,,0.00,,2013-07-06 13:20:00,
2013-07-06 05:22:00,49.0,39.0,-100.00,SE,130,3.0,7.0,68,0.00,,,0.00,,2013-07-06 13:22:00,
2013-07-06 05:33:00,49.0,39.0,-100.00,SE,130,3.0,7.0,68,0.00,,,0.00,,2013-07-06 13:33:00,
2013-07-06 05:43:00,49.0,39.0,-100.00,SE,130,3.0,7.0,68,0.00,,,0.00,,2013-07-06 13:43:00,
2013-07-06 06:02:00,49.0,39.0,-100.00,SE,125,2.0,7.0,69,0.00,,,0.00,,2013-07-06 14:02:00,
2013-07-06 06:11:00,49.0,39.0,-100.00,SE,125,2.0,7.0,69,0.00,,,0.00,,2013-07-06 14:11:00,
2013-07-06 06:42:00,49.0,40.0,-100.00,ESE,120,3.0,8.0,70,0.00,,,0.00,,2013-07-06 14:42:00,
2013-07-06 06:53:00,50.0,40.0,-100.00,SE,140,2.0,9.0,68,0.00,,,0.00,,2013-07-06 14:53:00,
2013-07-06 07:02:00,50.0,40.0,-100.00,SE,140,2.0,9.0,68,0.00,,,0.00,,2013-07-06 15:02:00,
2013-07-06 07:12:00,50.0,40.0,-100.00,SE,140,2.0,9.0,68,0.00,,,0.00,,2013-07-06 15:12:00,
2013-07-06 07:22:00,49.0,40.0,-100.00,SE,140,2.0,8.0,68,0.00,,,0.00,,2013-07-06 15:22:00,
2013-07-06 07:33:00,49.0,40.0,-100.00,SE,140,2.0,8.0,68,0.00,,,0.00,,2013-07-06 15:33:00,
2013-07-06 07:43:00,49.0,40.0,-100.00,SE,140,2.0,8.0,68,0.00,,,0.00,,2013-07-06 15:43:00,
2013-07-06 07:52:00,50.0,40.0,-100.00,ESE,120,3.0,9.0,67,0.00,,,0.00,,2013-07-06 15:52:00,
2013-07-06 08:04:00,50.0,40.0,-100.00,ESE,120,3.0,9.0,67,0.00,,,0.00,,2013-07-06 16:04:00,
2013-07-06 08:13:00,50.0,40.0,-100.00,ESE,120,3.0,9.0,67,0.00,,,0.00,,2013-07-06 16:13:00,
2013-07-06 08:48:00,51.0,40.0,-100.00,SE,125,4.0,9.0,66,0.00,,,0.00,,2013-07-06 16:48:00,
2013-07-06 09:06:00,53.0,41.0,-100.00,SE,145,2.0,7.0,63,0.00,,,0.00,,2013-07-06 17:06:00,
2013-07-06 09:15:00,53.0,41.0,-100.00,SE,145,2.0,7.0,63,0.00,,,0.00,,2013-07-06 17:15:00,
2013-07-06 09:38:00,53.0,40.0,-100.00,SSE,160,3.0,9.0,61,0.00,,,0.00,,2013-07-06 17:38:00,
2013-07-06 09:47:00,53.0,40.0,-100.00,SSE,160,3.0,9.0,61,0.00,,,0.00,,2013-07-06 17:47:00,
2013-07-06 09:56:00,55.0,41.0,-100.00,ESE,110,2.0,7.0,59,0.00,,,0.00,,2013-07-06 17:56:00,
2013-07-06 10:05:00,55.0,41.0,-100.00,ESE,110,2.0,7.0,59,0.00,,,0.00,,2013-07-06 18:05:00,
2013-07-06 10:16:00,55.0,41.0,-100.00,ESE,110,2.0,7.0,59,0.00,,,0.00,,2013-07-06 18:16:00,
2013-07-06 10:48:00,58.0,41.0,-100.00,ENE,70,3.0,6.0,53,0.00,,,0.00,,2013-07-06 18:48:00,
2013-07-06 11:07:00,60.0,40.0,-100.00,East,85,2.0,5.0,48,0.00,,,0.00,,2013-07-06 19:07:00,
2013-07-06 11:16:00,60.0,40.0,-100.00,East,85,2.0,5.0,48,0.00,,,0.00,,2013-07-06 19:16:00,
2013-07-06 11:37:00,62.0,40.0,-100.00,SE,145,1.0,8.0,44,0.00,,,0.00,,2013-07-06 19:37:00,
2013-07-06 11:48:00,62.0,40.0,-100.00,SE,145,1.0,8.0,44,0.00,,,0.00,,2013-07-06 19:48:00,
2013-07-06 11:54:00,63.0,41.0,-100.00,SE,130,1.0,6.0,43,0.00,,,0.00,,2013-07-06 19:54:00,
2013-07-06 12:06:00,63.0,41.0,-100.00,SE,130,1.0,6.0,43,0.00,,,0.00,,2013-07-06 20:06:00,
2013-07-06 12:16:00,63.0,41.0,-100.00,SE,130,1.0,6.0,43,0.00,,,0.00,,2013-07-06 20:16:00,
2013-07-06 12:48:00,65.0,41.0,-100.00,SE,125,1.0,6.0,41,0.00,,,0.00,,2013-07-06 20:48:00,
2013-07-06 12:56:00,64.0,39.0,-100.00,West,275,2.0,8.0,39,0.00,,,0.00,,2013-07-06 20:56:00,
2013-07-06 13:06:00,64.0,39.0,-100.00,West,275,2.0,8.0,39,0.00,,,0.00,,2013-07-06 21:06:00,
2013-07-06 13:14:00,64.0,39.0,-100.00,West,275,2.0,8.0,39,0.00,,,0.00,,2013-07-06 21:14:00,
2013-07-06 13:39:00,65.0,39.0,-100.00,SSE,155,2.0,7.0,37,0.00,,,0.00,,2013-07-06 21:39:00,
2013-07-06 13:48:00,65.0,39.0,-100.00,SSE,155,2.0,7.0,37,0.00,,,0.00,,2013-07-06 21:48:00,
2013-07-06 13:56:00,66.0,40.0,-100.00,SE,145,4.0,11.0,38,0.00,,,0.00,,2013-07-06 21:56:00,
2013-07-06 14:07:00,66.0,40.0,-100.00,SE,145,4.0,11.0,38,0.00,,,0.00,,2013-07-06 22:07:00,
2013-07-06 14:16:00,66.0,40.0,-100.00,SE,145,4.0,11.0,38,0.00,,,0.00,,2013-07-06 22:16:00,
2013-07-06 14:38:00,67.0,40.0,-100.00,SSW,195,3.0,11.0,37,0.00,,,0.00,,2013-07-06 22:38:00,
2013-07-06 14:56:00,65.0,39.0,-100.00,SSE,155,2.0,12.0,38,0.00,,,0.00,,2013-07-06 22:56:00,
2013-07-06 15:06:00,65.0,39.0,-100.00,SSE,155,2.0,12.0,38,0.00,,,0.00,,2013-07-06 23:06:00,
2013-07-06 15:15:00,65.0,39.0,-100.00,SSE,155,2.0,12.0,38,0.00,,,0.00,,2013-07-06 23:15:00,
2013-07-06 15:39:00,68.0,39.0,-100.00,SSE,150,4.0,12.0,35,0.00,,,0.00,,2013-07-06 23:39:00,
2013-07-06 15:57:00,70.0,39.0,-100.00,South,170,4.0,13.0,32,0.00,,,0.00,,2013-07-06 23:57:00,
2013-07-06 16:08:00,70.0,39.0,-100.00,South,170,4.0,13.0,32,0.00,,,0.00,,2013-07-07 00:08:00,
2013-07-06 16:17:00,70.0,39.0,-100.00,South,170,4.0,13.0,32,0.00,,,0.00,,2013-07-07 00:17:00,
2013-07-06 16:55:00,69.0,38.0,-100.00,SE,145,4.0,11.0,31,0.00,,,0.00,,2013-07-07 00:55:00,
2013-07-06 17:05:00,69.0,38.0,-100.00,SE,145,4.0,11.0,31,0.00,,,0.00,,2013-07-07 01:05:00,
2013-07-06 17:14:00,69.0,38.0,-100.00,SE,145,4.0,11.0,31,0.00,,,0.00,,2013-07-07 01:14:00,
2013-07-06 17:37:00,70.0,39.0,-100.00,SW,215,3.0,12.0,32,0.00,,,0.00,,2013-07-07 01:37:00,
2013-07-06 17:55:00,69.0,38.0,-100.00,SSE,155,6.0,14.0,31,0.00,,,0.00,,2013-07-07 01:55:00,
2013-07-06 18:45:00,70.0,38.0,-100.00,SW,230,7.0,16.0,31,0.00,,,0.00,,2013-07-07 02:45:00,
2013-07-06 19:05:00,68.0,37.0,-100.00,SSE,150,3.0,12.0,32,0.00,,,0.00,,2013-07-07 03:05:00,
2013-07-06 19:14:00,68.0,37.0,-100.00,SSE,150,3.0,12.0,32,0.00,,,0.00,,2013-07-07 03:14:00,
2013-07-06 19:45:00,69.0,37.0,-100.00,SE,145,4.0,15.0,31,0.00,,,0.00,,2013-07-07 03:45:00,
2013-07-06 19:54:00,68.0,37.0,-100.00,SE,145,6.0,14.0,31,0.00,,,0.00,,2013-07-07 03:54:00,
2013-07-06 20:01:00,68.0,37.0,-100.00,SE,145,6.0,14.0,31,0.00,,,0.00,,2013-07-07 04:01:00,
2013-07-06 20:11:00,68.0,37.0,-100.00,SE,145,6.0,14.0,31,0.00,,,0.00,,2013-07-07 04:11:00,
2013-07-06 20:31:00,69.0,37.0,-100.00,South,185,5.0,19.0,31,0.00,,,0.00,,2013-07-07 04:31:00,
2013-07-06 20:41:00,69.0,37.0,-100.00,South,185,5.0,19.0,31,0.00,,,0.00,,2013-07-07 04:41:00,
2013-07-06 20:51:00,65.0,35.0,-100.00,SSW,210,6.0,21.0,32,0.00,,,0.00,,2013-07-07 04:51:00,
2013-07-06 21:01:00,65.0,35.0,-100.00,SSW,210,6.0,21.0,32,0.00,,,0.00,,2013-07-07 05:01:00,
2013-07-06 21:11:00,65.0,35.0,-100.00,SSW,210,6.0,21.0,32,0.00,,,0.00,,2013-07-07 05:11:00,
2013-07-06 21:31:00,64.0,35.0,-100.00,SSW,200,5.0,16.0,33,0.00,,,0.00,,2013-07-07 05:31:00,
2013-07-06 21:41:00,64.0,35.0,-100.00,SSW,200,5.0,16.0,33,0.00,,,0.00,,2013-07-07 05:41:00,
2013-07-06 21:51:00,65.0,36.0,-100.00,SSW,210,6.0,16.0,33,0.00,,,0.00,,2013-07-07 05:51:00,
2013-07-06 22:01:00,65.0,36.0,-100.00,SSW,210,6.0,16.0,33,0.00,,,0.00,,2013-07-07 06:01:00,
2013-07-06 22:11:00,65.0,36.0,-100.00,SSW,210,6.0,16.0,33,0.00,,,0.00,,2013-07-07 06:11:00,
2013-07-06 22:32:00,65.0,36.0,-100.00,SE,135,4.0,14.0,33,0.00,,,0.00,,2013-07-07 06:32:00,
2013-07-06 22:43:00,65.0,36.0,-100.00,SE,135,4.0,14.0,33,0.00,,,0.00,,2013-07-07 06:43:00,
2013-07-06 22:52:00,65.0,36.0,-100.00,SSE,160,1.0,10.0,34,0.00,,,0.00,,2013-07-07 06:52:00,
2013-07-06 23:01:00,65.0,36.0,-100.00,SSE,160,1.0,10.0,34,0.00,,,0.00,,2013-07-07 07:01:00,
2013-07-06 23:11:00,65.0,36.0,-100.00,SSE,160,1.0,10.0,34,0.00,,,0.00,,2013-07-07 07:11:00,
2013-07-06 23:33:00,62.0,35.0,-100.00,SSW,195,2.0,10.0,36,0.00,,,0.00,,2013-07-07 07:33:00,
2013-07-06 23:44:00,62.0,35.0,-100.00,SSW,195,2.0,10.0,36,0.00,,,0.00,,2013-07-07 07:44:00,
2013-07-06 23:53:00,60.0,35.0,-100.00,South,170,2.0,9.0,38,0.00,,,0.00,,2013-07-07 07:53:00,